This is the latest recevied weather packets stored in our database for station/object SP3PDK-1. If no packets are shown the sender has not sent any weather packets the latest 10 day(s).
| Time | Temp. | Humidity | Pressure | Rain* | Wind** | Luminosity | Snow |
|---|---|---|---|---|---|---|---|
| 1777890258 | 26.11° C | 32% | 1012 hPa | - | - | - | - |
| 1777889058 | 26.11° C | 34% | 1012.4 hPa | - | - | - | - |
| 1777888459 | 25.56° C | 34% | 1012.5 hPa | - | - | - | - |
| 1777887254 | 26.11° C | 34% | 1012.4 hPa | - | - | - | - |
| 1777886654 | 25.56° C | 34% | 1012.5 hPa | - | - | - | - |
| 1777886054 | 24.44° C | 36% | 1012.4 hPa | - | - | - | - |
| 1777885454 | 24.44° C | 37% | 1012.4 hPa | - | - | - | - |
| 1777884853 | 24.44° C | 36% | 1012.5 hPa | - | - | - | - |
| 1777884258 | 23.89° C | 37% | 1012.2 hPa | - | - | - | - |
| 1777883658 | 23.89° C | 37% | 1012.5 hPa | - | - | - | - |
| 1777883059 | 24.44° C | 37% | 1012.5 hPa | - | - | - | - |
| 1777882457 | 23.89° C | 36% | 1012.5 hPa | - | - | - | - |
| 1777880654 | 23.33° C | 37% | 1012.4 hPa | - | - | - | - |
| 1777880056 | 23.33° C | 38% | 1012.3 hPa | - | - | - | - |
| 1777879454 | 23.33° C | 38% | 1012.3 hPa | - | - | - | - |
| 1777878856 | 22.78° C | 38% | 1012.1 hPa | - | - | - | - |
| 1777878253 | 22.22° C | 37% | 1012.1 hPa | - | - | - | - |
| 1777877655 | 22.22° C | 38% | 1012.1 hPa | - | - | - | - |
| 1777877058 | 21.67° C | 38% | 1012.1 hPa | - | - | - | - |
| 1777876459 | 21.67° C | 39% | 1012.2 hPa | - | - | - | - |
| 1777875253 | 20.56° C | 40% | 1012.2 hPa | - | - | - | - |
| 1777874654 | 20.56° C | 40% | 1012.2 hPa | - | - | - | - |
| 1777874053 | 19.44° C | 41% | 1012.1 hPa | - | - | - | - |
| 1777873453 | 19.44° C | 41% | 1012.1 hPa | - | - | - | - |
| 1777872855 | 18.89° C | 42% | 1012.1 hPa | - | - | - | - |
* Rain since midnight (hover to see other rain measurements)
** Current wind speed in m/s (hover to see current wind gust speed)